Track FLOCK 3R 2 now! 10-day predictions FLOCK 3R 2 is classified as:
1 43748U 18096AF 22138.23688989 .00103716 00000-0 19320-2 0 9994 2 43748 97.3642 225.0005 0013274 154.8935 205.2963 15.48370370193744